Погода в Элитном

Россия / Новосибирская область     54°54′53″N   82°56′55″E
темп.,
°C
ветер,
м/с
пор.,
м/с
влажн.,
%
обл.,
%
осадки,
мм/ч
давл.,
гПа
погр.,
м
18 мая, вт
вт1801:00+14ююз368898 1.5 1011110
04:00+14ююз3890100 0.4 1007174
07:00+15юз41386100 1.3 1005426
10:00+20зсз81459100 0.0 10041077
13:00+21ссз7956100 0.0 10051407
16:00+22зсз4745100 0.0 10051989
19:00+16ссв487952 0.5 1006416
22:00+13св488566 0.1 1007333
19 мая, ср
ср1901:00+12всв4786100 0.8 1006409
04:00+9ссв81291100 0.7 1006558
07:00+8св61087100 3.1 1007733
10:00+11ссв7969100 0.0 10081213
13:00+13ссв884284 0.1 10091903
16:00+14ссв783790 0.0 10092319
19:00+11ссв794395 0.0 10112138
22:00+7ссв41046100 0.0 1013302
20 мая, чт
чт2001:00+5ссв49527 0.0 1013235
04:00+2с396128 0.0 1013220
07:00+3ссв786565 0.0 1015774
10:00+5ссв7847100 0.3 10161958
13:00+6с7837100 0.3 10162240
16:00+8с6932100 0.0 10173057
19:00+8с593969 0.0 10182299
22:00+4сз33515 0.0 102041
21 мая, пт
пт2101:00+3сз311563 0.0 1021211
04:00+2ссз39635 0.0 1022158
07:00+3ссз266298 0.0 1024170
10:00+9зсз2345100 0.0 1025595
13:00+12з443556 0.0 10251675
16:00+13зюз563488 0.0 10241957
19:00+13зюз4742100 0.0 10231425
22:00+10юз41054100 0.0 1023273
22 мая, сб
сб2201:00+10юз61353100 0.1 1021543
04:00+10юз71657100 0.1 1018652
07:00+11з7167569 1.1 1017708
10:00+15зсз7106839 0.6 1016688
13:00+22зсз68545 0.6 10151134
16:00+25сз7104595 0.0 10152603
19:00+21св376286 0.0 1016777
22:00+16всв34805 0.0 101958